Stations météo

Publicité
Kleine Brogel, Belgique (6479): Température de l'air & dewpoint: 04.08.2020 01:00:00 - 10.08.2020 01:00:00 (CEST)Kleine Brogel, Belgique (6479): Vitesse du vent & gusts: 04.08.2020 01:00:00 - 10.08.2020 01:00:00 (CEST)Kleine Brogel, Belgique (6479): Direction du vent: 04.08.2020 01:00:00 - 10.08.2020 01:00:00 (CEST)Kleine Brogel, Belgique (6479): reduced air pressure: 04.08.2020 01:00:00 - 10.08.2020 01:00:00 (CEST)Kleine Brogel, Belgique (6479): visibility: 04.08.2020 01:00:00 - 10.08.2020 01:00:00 (CEST)
Date & Time tt [°C] td [°C] ff [km/h] ff [knt] fx [km/h] fx [knt] dd ppp [hPa] vv [km]
10.08.2020 01:00:00 - - - - - - - - -
10.08.2020 00:00:00 22,1 15,8 4 2 14 8 N 1015,1 20
09.08.2020 23:00:00 23,6 16,4 4 2 - - N 1015,1 20
09.08.2020 22:00:00 26,2 16,6 2 1 11 6 - 1015,0 3,6
09.08.2020 21:00:00 27,9 17,4 4 2 11 6 N 1014,7 20
09.08.2020 20:00:00 31,1 14,3 4 2 - - N 1014,5 20
09.08.2020 19:00:00 32,0 12,9 7 4 14 8 E 1014,3 20
09.08.2020 18:00:00 32,8 14,5 7 4 18 10 NE 1014,7 20
09.08.2020 17:00:00 32,4 14,2 7 4 - - ENE 1015,5 18
09.08.2020 16:00:00 27,3 19,2 4 2 14 8 N 1016,2 20
09.08.2020 15:00:00 26,5 17,7 4 2 18 10 N 1016,6 20
09.08.2020 14:00:00 27,4 18,4 14 8 - - WSW 1017,3 15
09.08.2020 13:00:00 30,1 16,6 4 2 11 6 N 1017,3 20
09.08.2020 12:00:00 28,8 16,5 4 2 11 6 N 1017,2 20
09.08.2020 11:00:00 27,3 17,7 4 2 - - N 1017,7 18
09.08.2020 10:00:00 25,1 17,5 4 2 7 4 N 1017,6 12
09.08.2020 09:00:00 23,8 17,2 7 4 7 4 N 1017,7 15
09.08.2020 08:00:00 22,9 17,2 4 2 - - N 1017,6 20
09.08.2020 07:00:00 23,0 16,9 4 2 22 12 N 1017,3 19
09.08.2020 06:00:00 23,4 16,8 14 8 18 10 ENE 1017,1 20
09.08.2020 05:00:00 22,7 15,6 4 2 - - N 1017,7 20
09.08.2020 04:00:00 23,2 15,5 4 2 7 4 N 1017,6 20
09.08.2020 03:00:00 23,5 15,0 4 2 11 6 N 1017,6 20
09.08.2020 02:00:00 23,8 14,1 7 4 - - NE 1017,8 20
09.08.2020 01:00:00 23,8 13,1 4 2 7 4 N 1018,1 20
09.08.2020 00:00:00 25,8 12,6 7 4 14 8 NNE 1018,1 20
08.08.2020 23:00:00 26,2 12,7 4 2 - - N 1018,0 20
08.08.2020 22:00:00 28,6 12,3 7 4 11 6 N 1018,0 20
08.08.2020 21:00:00 30,1 12,6 7 4 14 8 NNE 1017,5 20
08.08.2020 20:00:00 32,2 12,0 7 4 - - NNE 1017,2 20
08.08.2020 19:00:00 33,9 10,1 11 6 18 10 NNE 1017,2 20
08.08.2020 18:00:00 34,4 10,1 7 4 18 10 N 1017,6 17
08.08.2020 17:00:00 36,1 11,3 11 6 - - NE 1017,7 18
08.08.2020 16:00:00 35,2 11,5 11 6 22 12 NNE 1017,8 20
08.08.2020 15:00:00 35,2 10,7 7 4 22 12 N 1018,1 20
08.08.2020 14:00:00 34,6 11,9 11 6 - - NE 1018,5 20
08.08.2020 13:00:00 34,4 11,3 11 6 22 12 NE 1018,8 20
08.08.2020 12:00:00 33,5 12,1 11 6 22 12 ENE 1019,1 20
08.08.2020 11:00:00 30,9 13,4 7 4 - - ENE 1019,2 17
08.08.2020 10:00:00 29,0 13,0 4 2 7 4 N 1019,2 19
08.08.2020 09:00:00 25,5 13,1 2 1 4 2 - 1019,3 10
08.08.2020 08:00:00 19,5 13,1 4 2 - - N 1019,3 19
08.08.2020 07:00:00 16,7 12,9 4 2 0 0 N 1019,3 13
08.08.2020 06:00:00 17,0 12,2 0 0 4 2 N 1018,8 10
08.08.2020 05:00:00 17,0 12,5 4 2 - - N 1018,6 18
08.08.2020 04:00:00 17,7 12,5 0 0 0 0 N 1018,7 20
08.08.2020 03:00:00 19,0 12,6 2 1 0 0 - 1018,7 10
08.08.2020 02:00:00 19,5 12,5 0 0 - - N 1018,7 20
08.08.2020 01:00:00 20,3 12,7 0 0 0 0 N 1018,7 20
08.08.2020 00:00:00 21,5 12,5 0 0 0 0 N 1018,7 20
07.08.2020 23:00:00 22,8 12,7 4 2 - - N 1018,6 20
07.08.2020 22:00:00 25,2 12,0 0 0 4 2 N 1018,3 20
07.08.2020 21:00:00 29,1 11,8 4 2 11 6 N 1017,7 20
07.08.2020 20:00:00 32,0 10,5 7 4 - - ENE 1017,6 20
07.08.2020 19:00:00 33,0 8,8 7 4 22 12 ENE 1017,7 20
07.08.2020 18:00:00 33,7 9,6 11 6 22 12 ENE 1017,8 19
07.08.2020 17:00:00 33,3 10,3 14 8 - - NE 1018,2 20
07.08.2020 16:00:00 33,7 10,8 14 8 22 12 ENE 1018,5 20
07.08.2020 15:00:00 33,2 10,7 7 4 29 16 SE 1018,8 20
07.08.2020 14:00:00 32,3 10,8 7 4 - - S 1019,2 20
07.08.2020 13:00:00 32,0 10,3 7 4 22 12 ENE 1019,5 20
07.08.2020 12:00:00 31,0 12,6 7 4 14 8 E 1019,7 20
07.08.2020 11:00:00 30,2 13,4 4 2 - - N 1020,1 20
07.08.2020 10:00:00 27,6 14,1 4 2 7 4 N 1020,2 20
07.08.2020 09:00:00 24,3 13,8 4 2 7 4 N 1020,2 20
07.08.2020 08:00:00 20,5 12,6 4 2 - - N 1020,1 20
07.08.2020 07:00:00 15,8 12,1 4 2 0 0 N 1019,7 20
07.08.2020 06:00:00 15,6 12,2 4 2 0 0 N 1019,5 20
07.08.2020 05:00:00 16,1 11,8 4 2 - - N 1019,2 20
07.08.2020 04:00:00 17,0 11,5 4 2 0 0 N 1019,3 20
07.08.2020 03:00:00 17,7 11,8 0 0 0 0 N 1019,5 20
07.08.2020 02:00:00 18,4 12,1 0 0 - - N 1019,3 20
07.08.2020 01:00:00 18,8 12,1 4 2 4 2 N 1019,3 20
07.08.2020 00:00:00 20,0 12,0 4 2 4 2 N 1019,2 20
06.08.2020 23:00:00 21,2 11,9 4 2 - - N 1019,2 20
06.08.2020 22:00:00 23,6 11,6 4 2 7 4 N 1018,8 20
06.08.2020 21:00:00 27,1 11,0 4 2 11 6 N 1018,2 20
06.08.2020 20:00:00 30,1 9,6 7 4 - - E 1018,0 20
06.08.2020 19:00:00 31,2 9,7 11 6 25 14 ENE 1017,8 20
06.08.2020 18:00:00 31,9 10,3 8 4 29 16 E 1018,0 10
06.08.2020 17:00:00 31,1 10,5 4 2 - - N 1018,1 20
06.08.2020 16:00:00 30,6 10,1 7 4 22 12 E 1018,2 20
06.08.2020 15:00:00 31,0 9,2 7 4 22 12 SE 1018,5 20
06.08.2020 14:00:00 30,7 9,0 7 4 - - E 1018,7 20
06.08.2020 13:00:00 29,6 8,7 7 4 25 14 SSW 1019,2 20
06.08.2020 12:00:00 29,2 9,6 11 6 18 10 SW 1019,3 20
06.08.2020 11:00:00 26,9 9,5 7 4 - - S 1019,3 20
06.08.2020 10:00:00 26,2 10,1 14 8 22 12 SW 1019,2 20
06.08.2020 09:00:00 23,5 9,2 7 4 11 6 SSW 1019,1 20
06.08.2020 08:00:00 20,3 9,4 4 2 - - N 1018,7 20
06.08.2020 07:00:00 16,7 8,8 4 2 7 4 N 1018,3 20
06.08.2020 06:00:00 19,1 8,4 4 2 11 6 N 1017,8 20
06.08.2020 05:00:00 16,3 8,9 4 2 - - N 1017,6 20
06.08.2020 04:00:00 17,5 8,6 7 4 14 8 S 1017,0 20
06.08.2020 03:00:00 18,1 8,8 4 2 11 6 N 1016,7 20
06.08.2020 02:00:00 18,2 8,9 4 2 - - N 1016,3 20
06.08.2020 01:00:00 17,2 10,1 4 2 7 4 N 1016,3 20
06.08.2020 00:00:00 17,6 10,1 4 2 0 0 N 1016,2 20
05.08.2020 23:00:00 19,0 9,9 4 2 - - N 1016,0 20
05.08.2020 22:00:00 21,3 9,5 2 1 4 2 - 1015,6 1,9
05.08.2020 21:00:00 25,8 8,2 4 2 11 6 N 1015,0 20
05.08.2020 20:00:00 27,4 7,2 7 4 - - SSW 1014,7 20
05.08.2020 19:00:00 28,6 6,7 11 6 29 16 S 1014,6 20
05.08.2020 18:00:00 29,4 6,3 14 8 29 16 SW 1014,7 20
05.08.2020 17:00:00 29,2 5,9 11 6 - - S 1014,8 20
05.08.2020 16:00:00 29,0 6,1 11 6 32 18 S 1015,0 20
05.08.2020 15:00:00 30,0 7,1 14 8 36 19 SSW 1015,3 20
05.08.2020 14:00:00 28,5 6,7 18 10 - - SSW 1015,8 20
05.08.2020 13:00:00 27,2 6,8 14 8 32 18 S 1016,2 20
05.08.2020 12:00:00 26,2 7,3 14 8 29 16 SSW 1016,7 20
05.08.2020 11:00:00 24,1 7,9 18 10 - - SW 1017,0 20
05.08.2020 10:00:00 22,1 7,8 14 8 25 14 SSW 1017,2 20
05.08.2020 09:00:00 18,9 8,8 7 4 18 10 SSW 1017,2 20
05.08.2020 08:00:00 16,4 8,8 7 4 - - SSW 1016,6 20
05.08.2020 07:00:00 13,3 7,8 4 2 11 6 N 1016,5 20
05.08.2020 06:00:00 13,2 7,4 4 2 11 6 N 1016,2 20
05.08.2020 05:00:00 13,1 7,8 4 2 - - N 1016,2 20
05.08.2020 04:00:00 13,0 7,8 4 2 11 6 N 1016,3 20
05.08.2020 03:00:00 13,6 7,6 4 2 7 4 N 1016,3 20
05.08.2020 02:00:00 14,6 7,5 7 4 - - N 1016,7 20
05.08.2020 01:00:00 15,2 7,1 4 2 11 6 N 1016,6 20
05.08.2020 00:00:00 14,8 8,1 4 2 7 4 N 1016,7 20
04.08.2020 23:00:00 15,3 8,6 4 2 - - N 1016,7 20
04.08.2020 22:00:00 17,3 7,5 4 2 4 2 N 1016,7 14
04.08.2020 21:00:00 19,6 7,1 4 2 11 6 N 1016,6 20
04.08.2020 20:00:00 21,7 6,5 4 2 - - N 1016,6 20
04.08.2020 19:00:00 22,6 5,9 7 4 22 12 WSW 1016,3 20
04.08.2020 18:00:00 23,5 5,3 11 6 18 10 WSW 1016,6 20
04.08.2020 17:00:00 24,2 5,5 11 6 - - NW 1016,8 20
04.08.2020 16:00:00 23,5 5,0 7 4 25 14 WNW 1017,1 20
04.08.2020 15:00:00 23,4 4,9 11 6 25 14 WSW 1017,3 20
04.08.2020 14:00:00 22,6 5,9 7 4 - - NNW 1017,6 20
04.08.2020 13:00:00 21,5 6,7 7 4 22 12 NW 1017,7 20
04.08.2020 12:00:00 20,4 7,2 4 2 18 10 N 1017,7 20
04.08.2020 11:00:00 18,9 9,3 4 2 - - N 1017,8 20
04.08.2020 10:00:00 17,1 10,8 4 2 18 10 N 1018,0 20
04.08.2020 09:00:00 16,2 11,5 7 4 14 8 NNW 1017,8 20
04.08.2020 08:00:00 12,3 11,7 4 2 - - N 1017,5 5
04.08.2020 07:00:00 10,3 10,1 4 2 4 2 - 1017,1 2,2
04.08.2020 06:00:00 10,3 10,2 5 3 4 2 WSW 1016,6 0,5
04.08.2020 05:00:00 10,7 10,4 2 1 - - - 1016,3 2,0
04.08.2020 04:00:00 11,6 10,9 4 2 7 4 N 1016,1 8
04.08.2020 03:00:00 12,7 11,3 4 2 14 8 N 1016,1 16
04.08.2020 02:00:00 14,1 11,9 7 4 - - NW 1016,2 19
04.08.2020 01:00:00 14,3 11,5 4 2 7 4 N 1016,1 20

tt = Température de l'air
td = dewpoint
ff = Vitesse du vent
fx = gusts
dd = Direction du vent
ppp = reduced air pressure
vv = visibility

stations d'obs. à proximité